Погода в Пашкове

Россия / Пензенская область     53°38′54″N   42°25′00″E
темп.,
°C
ветер,
м/с
пор.,
м/с
влажн.,
%
обл.,
%
осадки,
мм/ч
давл.,
гПа
погр.,
м
20 апреля, вт
вт2000:00+6в61175100 0.0 1021719
03:00+4в61190100 1.1 1021790
06:00+3в51295100 2.4 1021701
09:00+3в61390100 4.3 1021824
12:00+4вюв71392100 1.7 1021916
15:00+2вюв61593100 4.4 1020742
18:00+3вюв71690100 2.9 1017827
21:00+4вюв81891100 5.9 1013925
21 апреля, ср
ср2100:00+5вюв122290100 9.6 10081084
03:00+8юв101991100 12.0 10061063
06:00+8ююв101789100 0.2 10061014
09:00+8ююв91590100 0.4 10071017
12:00+12ю9147597 0.8 10071594
15:00+9ююз71088100 1.4 1009975
18:00+6юз5982100 0.3 1013983
21:00+6ююз3790100 0.3 1015447
22 апреля, чт
чт2200:00+6ю2591100 0.0 1016162
03:00+6ю379660 0.3 1017180
06:00+5ю399558 0.0 1018291
09:00+9ююз588185 0.1 1019789
12:00+12зюз585770 0.1 10191719
15:00+13з575048 0.2 10201867
18:00+11з35642 0.0 1021349
21:00+8юв22755 0.0 102213
23 апреля, пт
пт2300:00+7юв37805 0.0 1022113
03:00+6ююв398097 0.0 1021156
06:00+8ю3876100 0.0 1022192
09:00+13ю475893 0.0 1022464
12:00+16ю454788 0.1 10211977
15:00+16юз344889 0.5 10201758
18:00+12юв237149 0.6 1020107
21:00+10юв35765 0.7 101971
24 апреля, сб
сб2400:00+9ююв398240 0.0 1018165
03:00+8юв378533 0.0 1016157
06:00+8ююв388790 0.0 1015204
09:00+12ююв697367 0.9 1013595
12:00+15ююв795667 1.7 10111583
15:00+15ю6861100 4.0 10091439
18:00+9зюз61186100 2.0 1008670
21:00+4з51294100 2.8 1010814